Wind_Speed
6 5 3 2 4 6 6 6 7 9 10 10 10 10 11 11 12 13 14 13 13 13 13 14 13 12 11 10 10 10 9 9 9 9 8 8 8 8 9 8 8 8 8
6 6 5 4 4 6 7 7 7 9 11 11 11 12 12 12 12 13 13 14 14 13 13 13 13 12 11 10 10 9 9 9 9 8 8 8 8 8 8 8 8 8 8
7 6 5 4 5 7 8 8 8 10 11 12 13 13 13 12 11 13 14 14 14 13 13 13 12 11 11 11 10 10 9 8 8 9 9 9 9 8 8 8 8 8 7
8 6 6 6 5 7 9 9 10 10 11 12 13 13 12 11 12 12 14 14 14 13 12 12 12 11 11 10 10 9 8 8 9 9 8 8 9 8 8 8 8 7 7
10 8 7 7 7 7 8 9 11 10 11 11 11 12 12 12 13 13 14 14 13 12 12 12 11 10 10 9 9 8 8 8 9 9 8 8 8 8 8 8 7 6 6
10 9 8 9 8 8 8 9 9 10 11 11 11 11 12 12 12 13 13 13 13 12 12 12 11 10 9 8 8 8 8 8 8 8 7 7 7 8 8 8 7 7 6
12 9 9 9 8 8 9 9 10 10 11 11 11 12 12 12 12 12 13 13 12 13 13 11 10 9 8 8 8 8 8 8 7 7 7 6 7 7 7 6 6 6 5
13 11 9 9 8 9 9 10 10 10 10 11 11 12 12 12 11 11 12 12 12 12 11 10 10 9 7 8 8 8 8 7 7 7 7 7 7 7 6 6 5 5 4
13 12 11 9 9 9 8 9 9 10 11 11 10 11 11 11 11 10 11 13 12 11 10 10 9 9 8 8 8 8 8 7 7 7 6 6 6 6 6 6 5 4 3
14 14 13 11 10 9 8 8 8 10 10 10 10 10 11 11 10 10 10 12 11 11 10 10 9 9 8 8 8 7 7 6 6 5 5 5 5 6 6 5 4 4 4
15 14 13 13 11 10 9 9 9 10 10 10 9 9 9 10 9 9 10 10 10 9 9 9 9 9 8 7 7 7 7 6 6 5 5 5 5 5 5 4 4 4 4
15 14 14 13 13 12 11 9 9 10 9 9 9 9 8 8 8 9 9 9 9 9 9 9 9 8 7 7 7 6 6 6 6 5 5 5 4 5 4 4 4 4 4
15 15 14 13 12 13 12 11 10 9 9 8 8 8 8 8 8 8 9 9 9 9 9 8 8 7 7 7 7 7 7 7 7 6 5 5 4 4 4 4 4 4 4
15 15 14 13 13 12 12 12 10 10 9 8 8 8 8 7 7 8 7 8 9 9 9 8 7 7 8 8 8 7 7 7 7 6 6 5 5 4 4 4 4 4 4
16 15 14 13 13 12 11 10 10 10 9 8 7 7 7 7 7 7 7 7 8 8 8 7 7 7 7 7 7 7 7 7 7 6 5 5 5 5 5 4 5 5 4
15 15 14 13 12 11 11 10 9 9 9 8 7 7 6 6 5 6 6 6 7 7 7 6 6 6 6 6 6 6 6 7 7 6 7 7 6 6 5 5 6 6 6
14 14 13 12 12 11 11 10 9 8 7 7 6 6 6 6 6 6 5 5 5 5 5 5 6 6 5 5 5 5 6 7 7 7 7 8 7 7 7 6 6 6 7
14 13 12 12 12 11 10 10 9 7 7 6 6 6 6 5 5 5 5 5 5 5 5 5 5 6 5 5 5 5 6 7 7 7 8 8 8 8 8 8 7 7 8
12 12 12 11 11 10 9 9 8 7 7 6 5 5 6 5 5 5 5 4 5 5 4 5 5 6 6 5 5 5 6 6 6 7 7 8 9 9 9 9 9 9 8
11 10 11 10 10 10 9 8 8 7 7 6 5 5 5 5 5 5 5 4 4 4 4 4 5 5 5 5 5 5 6 6 7 6 6 7 8 8 9 10 10 10 9
9 9 9 9 9 9 8 8 8 7 7 6 6 5 4 4 3 3 3 3 3 3 3 4 4 5 6 6 6 6 6 7 7 8 8 9 9 9 9 10 10 10 10
7 7 8 8 8 7 7 7 7 7 6 6 5 4 3 3 2 1 1 1 2 2 3 3 4 5 6 6 7 7 7 7 9 10 10 10 10 9 9 10 10 10 10
6 6 6 6 7 6 5 5 5 5 5 5 4 3 2 1 1 1 1 2 2 3 4 3 4 5 5 6 7 8 8 8 9 10 11 11 11 12 12 11 11 11 11
5 5 5 5 5 5 4 3 3 3 4 3 3 2 1 1 1 2 2 3 3 4 5 5 4 5 6 7 7 8 8 9 9 9 11 11 12 13 14 14 13 12 12
5 5 5 5 4 4 3 2 1 2 2 2 2 2 2 2 3 3 4 4 5 5 6 7 6 6 6 7 8 8 8 9 9 10 11 11 12 13 14 14 14 14 14
7 6 6 6 5 4 3 3 3 3 2 2 2 3 3 3 4 4 4 5 6 6 6 7 7 7 7 8 9 10 10 10 10 11 12 13 13 13 13 13 14 14 14
Wind_Direction
47 52 46 114 149 151 148 151 154 155 155 157 159 160 160 162 163 162 162 161 160 158 156 155 153 152 151 146 144 142 140 141 137 134 133 131 131 130 128 128 128 126 120
55 60 77 103 138 154 156 155 156 150 152 152 154 154 157 159 160 163 163 162 161 160 159 157 154 151 149 146 144 144 141 140 136 135 138 134 131 130 128 132 129 126 121
61 70 88 99 128 149 151 156 158 148 147 149 151 151 154 160 161 160 160 162 161 161 158 157 152 151 149 144 143 142 141 138 133 135 136 135 134 133 130 129 130 127 121
64 70 78 92 119 140 142 147 148 145 148 146 150 151 153 158 160 159 160 162 161 159 157 155 152 149 149 149 148 144 143 140 137 135 135 136 137 135 132 127 130 126 125
67 69 76 88 104 124 135 137 143 144 144 148 150 153 154 155 158 160 165 163 162 162 161 157 153 153 153 152 152 149 147 141 139 139 137 136 135 134 133 131 132 126 123
65 68 82 90 101 117 126 130 135 140 141 145 148 152 151 151 156 161 165 165 161 160 160 159 158 155 159 161 158 154 153 148 143 143 142 141 139 138 135 131 131 131 126
66 71 81 91 102 110 117 124 129 135 141 145 151 153 154 154 157 162 165 168 166 164 160 159 157 156 159 165 165 161 159 158 155 149 151 150 145 146 143 140 135 136 133
66 70 76 87 100 110 117 124 129 134 137 142 146 154 156 156 157 160 164 165 164 163 163 164 163 163 165 169 170 168 163 165 166 159 158 156 151 152 151 151 149 148 145
64 69 74 80 95 110 118 125 133 139 143 144 146 151 155 157 160 161 165 168 167 168 171 169 171 173 175 172 169 170 170 173 171 169 167 166 167 164 160 157 156 158 160
64 67 71 74 85 103 110 121 132 143 147 148 148 148 153 153 157 162 164 167 169 174 176 176 178 179 181 177 173 170 176 181 173 172 173 177 177 174 172 173 175 176 175
61 65 70 75 82 94 99 108 117 132 142 146 149 148 154 157 162 166 168 170 173 175 176 177 178 181 183 183 180 178 183 186 182 177 177 182 187 184 181 186 190 190 191
63 66 70 75 81 85 88 95 112 122 129 140 145 145 146 154 159 162 169 174 179 179 179 179 180 181 183 187 186 187 194 194 190 186 189 188 192 196 196 195 193 194 197
63 65 68 75 82 83 85 90 101 114 125 136 142 146 149 150 159 166 178 183 183 185 185 186 185 185 186 187 188 188 194 194 196 202 198 195 200 203 208 211 212 204 203
63 66 68 73 80 84 86 88 93 103 112 124 137 143 148 150 158 169 179 183 187 189 187 188 191 198 194 190 193 193 196 203 205 205 206 209 212 215 220 222 223 216 218
63 67 70 72 75 78 81 86 90 98 104 110 128 143 144 147 154 167 176 179 185 189 184 183 182 182 183 191 198 204 204 207 210 208 211 218 224 228 233 236 232 226 228
62 65 68 71 75 75 76 79 86 91 94 103 114 131 142 142 145 157 167 179 186 191 195 188 181 179 187 196 201 211 213 219 222 224 226 231 234 238 242 248 247 238 238
61 64 67 70 73 73 75 77 83 86 91 100 107 114 123 124 129 137 142 153 162 165 170 173 172 175 185 200 211 219 220 228 228 235 237 239 242 246 247 252 253 249 247
58 60 63 63 65 68 72 76 81 84 88 94 107 111 116 119 122 128 141 146 157 165 173 175 181 186 192 203 213 218 221 229 234 241 243 241 241 245 248 252 254 255 253
52 53 56 58 57 59 66 74 81 80 80 81 94 106 109 115 121 122 134 140 158 167 179 195 200 200 204 212 216 228 233 237 238 240 244 245 244 247 248 252 254 254 256
46 47 50 56 54 55 64 74 77 76 77 77 84 100 104 115 120 122 132 143 157 176 191 203 209 213 219 225 228 235 236 238 245 246 245 248 250 254 255 254 255 257 254
35 40 43 49 53 55 60 68 72 72 72 75 80 90 104 117 125 131 134 149 162 181 197 209 217 220 224 234 239 243 243 242 247 248 250 251 252 257 260 256 256 257 255
20 29 34 38 43 48 54 55 60 67 69 69 71 78 90 105 115 127 152 159 188 205 202 212 223 233 236 240 243 249 253 253 251 251 252 256 257 257 259 260 260 263 261
3 12 18 22 28 36 45 48 53 62 66 63 59 61 68 105 155 192 236 230 229 229 237 236 239 247 248 246 247 251 251 258 261 258 255 258 261 260 259 259 262 262 262
346 351 360 3 18 24 33 36 39 58 55 52 48 36 30 351 264 263 252 241 246 255 257 253 257 260 262 258 259 255 254 255 266 263 254 257 263 264 263 265 263 264 264
320 325 331 343 352 1 8 5 4 22 25 23 23 2 338 289 265 263 264 261 262 267 266 259 262 265 267 268 265 259 260 262 268 263 259 261 264 264 265 266 263 266 267
300 299 305 308 320 326 329 321 318 321 332 341 324 313 299 270 261 266 272 275 270 270 271 268 265 269 267 269 269 263 265 269 272 267 261 263 266 267 266 268 265 263 266
Height
5863 5862 5861 5861 5861 5862 5863 5863 5863 5864 5865 5866 5868 5870 5872 5873 5875 5876 5878 5880 5882 5883 5884 5885 5886 5888 5889 5890 5891 5892 5892 5893 5893 5894 5894 5895 5895 5896 5896 5896 5897 5897 5897
5863 5862 5861 5861 5862 5863 5863 5864 5864 5865 5866 5867 5869 5871 5872 5874 5876 5877 5879 5881 5883 5884 5885 5886 5887 5888 5890 5891 5891 5892 5893 5894 5894 5895 5895 5896 5896 5897 5897 5897 5897 5898 5898
5863 5863 5862 5862 5862 5863 5864 5864 5865 5866 5867 5868 5870 5872 5873 5875 5876 5878 5880 5882 5883 5885 5886 5887 5888 5889 5891 5892 5892 5893 5894 5895 5895 5896 5896 5897 5897 5897 5897 5898 5898 5898 5899
5864 5863 5863 5863 5863 5863 5864 5865 5866 5867 5868 5869 5871 5872 5874 5876 5877 5879 5881 5882 5884 5885 5887 5888 5889 5890 5891 5892 5893 5894 5895 5895 5896 5896 5897 5897 5897 5898 5898 5898 5899 5899 5900
5865 5864 5864 5864 5863 5864 5865 5866 5867 5868 5869 5870 5872 5873 5875 5876 5878 5879 5881 5883 5884 5886 5887 5889 5890 5891 5892 5893 5894 5895 5895 5896 5896 5897 5897 5898 5898 5898 5899 5899 5900 5900 5900
5866 5866 5865 5865 5865 5865 5865 5866 5868 5869 5870 5872 5873 5874 5876 5877 5879 5880 5882 5883 5885 5886 5888 5889 5891 5892 5893 5894 5894 5895 5896 5896 5897 5898 5898 5899 5899 5899 5900 5900 5900 5900 5901
5868 5867 5866 5866 5866 5866 5866 5867 5869 5870 5872 5873 5874 5875 5877 5878 5880 5881 5882 5884 5885 5887 5888 5890 5891 5892 5893 5894 5895 5895 5896 5897 5897 5898 5898 5899 5899 5900 5900 5901 5901 5901 5901
5869 5869 5868 5868 5867 5868 5868 5869 5870 5871 5873 5874 5875 5876 5878 5879 5880 5881 5883 5884 5886 5887 5888 5890 5892 5893 5894 5895 5895 5896 5896 5897 5898 5898 5899 5899 5900 5900 5901 5901 5901 5902 5902
5871 5870 5870 5869 5869 5869 5869 5870 5871 5872 5873 5875 5876 5877 5879 5880 5881 5883 5884 5885 5886 5888 5889 5890 5892 5893 5894 5895 5895 5896 5897 5897 5898 5899 5899 5900 5900 5900 5901 5901 5901 5902 5902
5873 5872 5871 5871 5870 5871 5871 5871 5870 5872 5874 5876 5877 5878 5880 5881 5882 5884 5884 5885 5887 5888 5889 5891 5892 5893 5894 5895 5896 5896 5897 5897 5898 5899 5900 5900 5900 5901 5901 5901 5902 5902 5902
5875 5874 5873 5873 5872 5872 5872 5872 5871 5873 5875 5877 5878 5879 5881 5882 5883 5884 5885 5886 5887 5888 5890 5891 5892 5893 5894 5895 5896 5896 5897 5898 5898 5899 5900 5900 5900 5901 5901 5901 5901 5902 5901
5878 5877 5876 5875 5874 5874 5874 5874 5874 5875 5877 5878 5879 5880 5881 5883 5884 5884 5885 5886 5887 5888 5890 5891 5892 5893 5894 5895 5896 5896 5897 5898 5898 5899 5900 5900 5900 5901 5901 5901 5901 5901 5901
5880 5879 5878 5877 5877 5876 5877 5876 5877 5877 5878 5879 5880 5881 5882 5883 5884 5885 5886 5887 5888 5889 5890 5891 5892 5893 5894 5895 5895 5896 5896 5897 5898 5899 5899 5900 5900 5901 5901 5901 5901 5901 5901
5882 5881 5880 5879 5879 5879 5879 5879 5879 5879 5880 5881 5881 5882 5883 5884 5885 5886 5886 5887 5888 5889 5890 5891 5892 5893 5894 5894 5895 5896 5896 5897 5898 5898 5899 5900 5900 5900 5900 5900 5900 5900 5900
5884 5883 5883 5882 5881 5881 5881 5881 5881 5881 5881 5882 5882 5883 5884 5885 5885 5886 5887 5888 5889 5889 5890 5891 5892 5892 5893 5894 5895 5895 5896 5896 5897 5898 5898 5899 5899 5899 5899 5899 5899 5899 5899
5886 5885 5885 5884 5884 5883 5883 5883 5883 5883 5883 5883 5883 5884 5885 5885 5886 5887 5887 5888 5889 5889 5890 5891 5892 5892 5893 5894 5895 5895 5896 5896 5897 5897 5898 5898 5898 5898 5899 5899 5898 5898 5898
5889 5888 5887 5886 5886 5885 5885 5884 5884 5884 5885 5885 5885 5885 5886 5886 5886 5887 5887 5887 5888 5889 5890 5891 5891 5892 5893 5894 5894 5894 5895 5895 5896 5896 5896 5897 5897 5897 5897 5897 5897 5897 5897
5891 5890 5889 5888 5887 5887 5886 5886 5886 5886 5886 5886 5886 5886 5886 5886 5886 5887 5887 5888 5888 5889 5890 5890 5891 5892 5892 5893 5893 5893 5894 5894 5894 5895 5895 5895 5895 5895 5896 5896 5896 5895 5895
5892 5891 5890 5889 5888 5888 5887 5887 5887 5887 5887 5886 5886 5886 5886 5886 5886 5887 5887 5888 5888 5889 5890 5890 5891 5891 5892 5892 5892 5892 5892 5893 5893 5893 5893 5893 5893 5893 5893 5894 5894 5893 5893
5894 5893 5892 5891 5890 5889 5888 5888 5887 5887 5887 5887 5887 5887 5886 5886 5886 5887 5888 5888 5888 5889 5889 5890 5890 5890 5891 5891 5891 5891 5891 5891 5891 5891 5892 5892 5892 5892 5891 5891 5891 5891 5891
5895 5894 5893 5892 5891 5890 5889 5888 5888 5887 5887 5887 5887 5887 5887 5887 5887 5887 5887 5888 5888 5888 5889 5889 5889 5889 5889 5890 5890 5890 5890 5890 5890 5890 5890 5890 5890 5890 5889 5889 5888 5889 5889
5896 5895 5894 5893 5892 5891 5890 5889 5888 5888 5888 5887 5887 5887 5887 5887 5887 5887 5887 5887 5888 5888 5888 5888 5888 5888 5888 5888 5888 5888 5888 5889 5888 5888 5888 5888 5888 5888 5887 5887 5887 5887 5886
5896 5895 5894 5893 5892 5891 5890 5889 5889 5888 5888 5887 5887 5887 5887 5887 5886 5887 5887 5887 5887 5887 5887 5887 5887 5887 5887 5886 5886 5887 5886 5886 5886 5886 5886 5885 5885 5885 5885 5884 5884 5884 5884
5895 5895 5894 5893 5892 5891 5890 5889 5888 5888 5887 5887 5887 5886 5886 5886 5886 5886 5886 5886 5886 5886 5886 5886 5886 5885 5885 5885 5885 5884 5884 5884 5884 5883 5883 5883 5883 5882 5882 5881 5880 5880 5880
5894 5893 5893 5892 5891 5890 5889 5888 5888 5887 5887 5886 5886 5885 5885 5884 5884 5884 5884 5884 5884 5884 5884 5883 5883 5883 5883 5883 5882 5882 5881 5881 5881 5880 5880 5880 5879 5879 5878 5877 5877 5877 5877
5892 5891 5891 5890 5889 5888 5888 5887 5887 5886 5885 5885 5884 5884 5883 5883 5882 5882 5882 5882 5882 5882 5881 5881 5881 5881 5881 5880 5879 5879 5878 5878 5877 5877 5877 5876 5876 5875 5875 5874 5874 5873 5873